Overview Statistics Trail Chart Weather Telemetry Raw packets
 

This is the latest recevied weather packets stored in our database for station/object W5CMS-13. If no packets are shown the sender has not sent any weather packets the latest 10 day(s).

<< 44 45 46 47 48 49 50 >>
Time Temp. Humidity Pressure Rain* Wind** Luminosity Snow
1787941517 36.67° C 44% 1016.8 hPa 0 mm - - -
1787940917 36.67° C 43% 1017 hPa 0 mm - - -
1787940317 37.22° C 46% 1017.1 hPa 0 mm - - -
1787939718 36.11° C 46% 1017.2 hPa 0 mm - - -
1787939118 36.11° C 46% 1017.4 hPa 0 mm - - -
1787938517 36.11° C 48% 1017.5 hPa 0 mm - - -
1787937917 35.56° C 50% 1017.6 hPa 0 mm - - -
1787937317 35.56° C 50% 1017.6 hPa 0 mm - - -
1787936717 35.56° C 51% 1017.7 hPa 0 mm - - -
1787936117 35.56° C 49% 1017.7 hPa 0 mm - - -
1787935517 34.44° C 53% 1017.7 hPa 0 mm - - -
1787934917 34.44° C 53% 1017.8 hPa 0 mm - - -
1787934317 34.44° C 56% 1017.8 hPa 0 mm - - -
1787933717 33.89° C 59% 1017.8 hPa 0 mm - - -
1787933117 33.33° C 61% 1017.8 hPa 0 mm - - -
1787932517 33.33° C 62% 1017.8 hPa 0 mm - - -
1787931917 33.33° C 63% 1017.7 hPa 0 mm - - -
1787931317 32.78° C 64% 1017.7 hPa 0 mm - - -
1787930717 32.22° C 65% 1017.7 hPa 0 mm - - -
1787930117 32.22° C 66% 1017.6 hPa 0 mm - - -
1787929517 31.67° C 68% 1017.5 hPa 0 mm - - -
1787928917 31.11° C 69% 1017.4 hPa 0 mm - - -
1787928317 30.56° C 70% 1017.4 hPa 0 mm - - -
1787927717 30° C 70% 1017.4 hPa 0 mm - - -
1787927119 29.44° C 73% 1017.4 hPa 0 mm - - -

* Rain latest hour (hover to see other rain measurements)
** Current wind speed in m/s (hover to see current wind gust speed)